Tracking 19575 objects as of 20-Feb-2019
HD Live streaming from Space Station
objects crossing your sky now

SBS 2

Track SBS 2 now!
SBS 2 is classified as:


NORAD ID: 12855
Int'l Code: 1981-096A
Perigee: 35,832.1 km
Apogee: 35,838.9 km
Inclination: 14.1 °
Period: 1,438.2 minutes
Semi major axis: 42206 km
RCS: 7.6855 m2 (large)
Launch date: September 24, 1981
Source: United States (US)
Launch site: AIR FORCE EASTERN TEST RANGE (AFETR)
aabbcc
Your satellite tracking list
Your tracking list is empty




NASA's NSSDC Master Catalog

Two Line Element Set (TLE):
1 12855U 81096A   19051.22335391 -.00000274  00000-0  00000+0 0  9992
2 12855  14.1418 343.7621 0000805 297.4846 236.5839  1.00123088 91785
Source of the keplerian elements: AFSPC